Location: Ferchesar
(52.6477°N, 12.4298°E)
Time: 04:21:20
(UTC+01:00)

Vanguard 1 Rocket - Pass Details

Date: 12 December 2021
Orbit: 651 x 4224 km, 34.3° (Epoch: 15 January)

Event Time Altitude Azimuth Distance (km) Brightness Sun altitude
Rises 07:19:31 0° 265° (W) 5,915 11.0 -7.5°
Reaches altitude 10° 07:25:12 10° 247° (WSW) 5,546 11.0 -6.8°
Maximum altitude 07:34:29 17° 215° (SW) 5,825 11.5 -5.6°
Drops below altitude 10° 07:46:13 10° 184° (S) 7,129 12.4 -4.1°
Sets 07:55:51 0° 168° (SSE) 8,435 13.1 -2.9°
